BUGSAT-1 (TITA) (40014 NORAD) Tracking and Keplerian Element Data

This shows tracking and keplerian element data for the satellite.

Feedback or suggestion? Click here.




ElementValue
Catalog40014
NameBUGSAT-1 (TITA)
Epoch Orbit23992
Epoch Day316.67900998
Epoch Year2018
RAAN254.7057
Inclination97.9897
Eccentricity0.0033452
Argument of Perigee63.2407
Mean Anonmoly297.2223
Mean Motion14.95145837
Decay Rate3.83E-06
L11 40014U 14033E 18316.67900998 .00000383 00000-0 40158-4 0 9993
L22 40014 97.9897 254.7057 0033452 63.2407 297.2223 14.95145837239928

Live tracking and technical data element details for BUGSAT-1 (TITA) (NORAD 40014). BUGSAT-1 (TITA) can be tracked NOW for your location showing map with azimuth and elevation plus other details from your city location.

Track the satellite on the map from your city or location and see movement details for azimuth, elevation, latitude, longitude, range, height, and movement on the map or in text.







IsCatalogInMostPopularTable: catalog: 40014, numindb: 78
Update: records affected: 1



GetName: 40014 BUGSAT-1 (TITA)

Hit Count: updated at: Tue, 13 Nov 2018 23:20:02 GMT